Regional Weather Roundup
Issued by NWS

Home | Current Version | Previous Version | Graphics & Text | Print | Product List | Glossary Off
Versions: 1 2 3 4 5 6 7 8 9 10 11 12 13 14 15 16 17 18 19 20 21 22 23 24 25 26 27 28 29 30 31 32 33 34 35 36 37 38 39 40 41 42 43 44 45 46 47 48 49 50

430
ASUS43 KMKX 310121
RWRWI

WISCONSIN REGIONAL WEATHER ROUNDUP
NATIONAL WEATHER SERVICE MILWAUKEE/SULLIVAN WI
800 PM CDT SAT JUL 30 2016

NOTE: "FAIR" INDICATES FEW OR NO CLOUDS BELOW 12,000 FEET WITH NO
SIGNIFICANT WEATHER AND/OR OBSTRUCTIONS TO VISIBILITY.

WIZ001-002-006>008-014>016-023>028-310200-
NORTHWEST WISCONSIN

CITY           SKY/WX    TMP DP  RH WIND       PRES   REMARKS
SUPERIOR ARPT  CLEAR     64  63  94 NE6       30.01S
ASHLAND        PTCLDY    69  59  70 NE9       30.02S
HAYWARD        CLEAR     75  59  57 SE3       30.01F
SIREN          NOT AVBL
CUMBERLAND     CLEAR     72  61  68 SE3       30.01S
RICE LAKE      CLEAR     74  61  65 SE5       30.02S
CHETEK         CLEAR     74  63  67 CALM      30.01S
LADYSMITH      CLEAR     76  60  56 CALM      30.03F
EAU CLAIRE     CLEAR     76  63  64 SE9       29.99S
MENOMONIE      PTCLDY    75  62  64 SE3       30.00S
NEW RICHMOND   CLEAR     75  61  60 SE3       30.00R
OSCEOLA        CLEAR     76  63  63 SE3       30.01S
$$

WIZ003>005-009-010-017-018-310200-
NORTH CENTRAL WISCONSIN

CITY           SKY/WX    TMP DP  RH WIND       PRES   REMARKS
MANITOWISH WTR CLEAR     69  59  69 CALM      30.05S
ARBOR VITAE    CLEAR     72  56  57 CALM      30.05S
WOODRUFF       CLEAR     72  56  57 CALM      30.05S
RHINELANDER    CLEAR     70  55  59 SE7       30.07R
EAGLE RIVER    CLEAR     70  51  51 SE3       30.06S
LAND O LAKES   CLEAR     71  53  53 SE3       30.07S
PHILLIPS       PTCLDY    71  61  70 CALM      30.04S
TOMAHAWK       CLEAR     70  57  65 CALM      30.06R
MEDFORD        CLEAR     69  60  72 SE3       30.04S
MERRILL        CLEAR     71  58  64 SE3       30.05S
$$

WIZ029-030-035-036-043>047-310200-
CENTRAL WISCONSIN

CITY           SKY/WX    TMP DP  RH WIND       PRES   REMARKS
WAUSAU         CLEAR     72  55  55 SE8       30.03R
MOSINEE        CLEAR     70  57  64 E5        30.05S
MARSHFIELD     MOCLDY    72  59  63 E3        30.03S
STEVENS POINT  CLEAR     69  55  59 E5        30.05R
WAUPACA        CLEAR     73  55  53 NE3       30.03S
WAUTOMA        CLEAR     70  61  73 NE3       30.03S
WISC RAPIDS    CLEAR     73  55  53 E6        30.04R
CAMP DOUGLAS   CLEAR     69  63  81 E3        30.01R
$$

WIZ011>013-019>022-031-037>040-048>050-310200-
NORTHEAST WISCONSIN

CITY           SKY/WX    TMP DP  RH WIND       PRES   REMARKS
ANTIGO         CLEAR     66  56  72 CALM      30.07S
SHAWANO        CLEAR     71  55  56 E6        30.04S
OCONTO         CLEAR     71  58  64 CALM      30.03S
STURGEON BAY   CLEAR     70  56  61 NE5       30.05R
GREEN BAY      CLEAR     69  60  73 NE9       30.03S
MANITOWOC      CLEAR     69  58  67 NE5       30.04S
APPLETON       PTCLDY    72  48  43 NE7       30.02S
CLINTONVILLE   CLEAR     70  52  52 E3        30.03S
OSHKOSH        CLEAR     72  53  51 E5        30.02S
$$

WIZ032>034-041-042-053>061-310200-
SOUTHWEST WISCONSIN

CITY           SKY/WX    TMP DP  RH WIND       PRES   REMARKS
LA CROSSE      CLEAR     78  63  59 SE3       29.98R HX  80
SPARTA         PTCLDY    72  65  76 CALM      30.01S
VIROQUA        CLEAR     71  62  72 SE3       30.02R
BOSCOBEL       CLEAR     77  65  66 CALM      29.98S
PRAIRIE DU CHI CLEAR     74  63  69 E3        29.98R
PLATTEVILLE    CLEAR     74  65  71 E3        30.00S
$$

WIZ056-057-062-063-064-067-068-310200-
SOUTH CENTRAL WISCONSIN

CITY           SKY/WX    TMP DP  RH WIND       PRES   REMARKS
REEDSBURG      CLEAR     74  62  66 E3        30.00S
BARABOO/DELLS  CLEAR     71  58  64 E5        30.02S
LONE ROCK      CLEAR     74  65  73 NE6       30.00R
MINERAL POINT  CLEAR     73  63  68 E3        30.01S
MADISON        PTCLDY    72  58  61 E6        30.00S
MIDDLETON      CLEAR     73  61  64 E6        30.01S
WATERTOWN      CLEAR     71  58  64 E7        30.01S
MONROE         CLEAR     72  61  68 NE6       30.00S
JANESVILLE     CLEAR     75  61  60 E6        29.99R
$$

WIZ051-052-058>065-066-070>072-310200-
SOUTHEAST WISCONSIN

CITY           SKY/WX    TMP DP  RH WIND       PRES   REMARKS
MILWAUKEE      CLOUDY    71  63  75 N10       30.01S
WAUKESHA       CLEAR     70  54  56 E9        30.03S
MILWAUKEE/TIMM PTCLDY    70  55  60 NE7       30.03S
RACINE         MOCLDY    70  62  76 N6        30.02F
BURLINGTON     CLEAR     70  58  65 E6        30.01S
KENOSHA        CLOUDY    70  61  73 N7        30.01S
FOND DU LAC    CLEAR     72  54  53 E7        30.03R
SHEBOYGAN      CLEAR     67  59  75 NE7       30.03S
WEST BEND      CLEAR     68  54  60 NE5       30.03S
JUNEAU         CLEAR     70  55  58 NE5       30.03S
$$

LSZ147-162-310200-
LAKE SUPERIOR

STATION/POSITION TIME  TEMP    WIND        PRES    WAVE
                       AIR SEA DIR/SP/G            HT/PER
                 (UTC) (F)     (DEG/KT/KT) (MB)    (FT/S)
W MID LAKE BUOY  0050   65 63   80/  8/  8 1016.5F   0
DEVILS ISLAND    0100   66      80/ 10/ 11 1016.6S
PORT WING        0000   66      30/ 13/ 15 1016.3F
SAXON HARBOR     0040   72      80/  3/  8 1015.9F
$$

LMZ867-665-643>646-310200-
LAKE MICHIGAN

STATION/POSITION TIME  TEMP    WIND        PRES    WAVE
                       AIR SEA DIR/SP/G            HT/PER
                 (UTC) (F)     (DEG/KT/KT) (MB)    (FT/S)
CHAMBERS ISLAND  0000   72      20/  9/ 10 1016.9F
S GREEN BAY BUOY 0100   71 71   80/ 10/ 12 1016.4
N MID LAKE BUOY  0050   71 70   50/ 10/ 12 1016.3R   1/ 3
NORTHPORT PIER   0000   75      50/  6/  9 1016.6
SISTER BAY       0006   76      40/  5/  8   N/A
ALGOMA LAKESHORE 0013           60/ 10/ 12   N/A
KEWAUNEE LAKESHO 0000   71      20/  3/  6   N/A
SHEBOYGAN LAKESH 0100   67      10/  9/ 10 1016.8F
PORT WASHINGTON  0000   71      40/  9/ 12 1017.3
ATWATER BUOY     0100   67 65  350/  6/  8 1018.0S
MILWAUKEE LAKESH 0010   69      10/ 11/ 13   N/A
S MID LAKE BUOY  0050   72 74   30/ 12/ 12 1014.9R   2/ 3
KENOSHA   LAKESH 0100   71      10/ 14/ 16 1015.6S
$$

TC  - TEMPERATURE IN CELSIUS
VSB - VISIBILITY IN STATUTE MILES
WCI - WIND CHILL INDEX
HX  - HEAT INDEX





USA.gov is the U.S. government's official web portal to all federal, state and local government web resources and services.